Location: Dackenheim
(49.5215°N, 8.1854°E)
Time: 02:59:49
(UTC+00:00)

UWE-3 - Pass Details

Date: 14 March 2026
Orbit: 543 x 612 km, 97.9° (Epoch: 12 April)

Event Time Altitude Azimuth Distance (km) Brightness Sun altitude
Rises 03:56:24 0° 359° (N) 2,893 ? -18.0°
Reaches altitude 10° 03:59:29 10° 335° (NNW) 1,978 ? -17.5°
Enters shadow 04:01:11 14° 312° (NW) 1,720 ? -17.2°
